| time (UTC) | temp F | wind direction | speed MPH | gust MPH | rain 1hr in | rain 24hr in | rain mn in | humidity % | barometer mb |
| 20260505124228 | 54 | 180 | 5.0 | 9.0 | 0.00 | 0.00 | 0.00 | 85 | 1015.3 |
| 20260505123226 | 54 | 203 | 5.0 | 7.0 | 0.00 | 0.00 | 0.00 | 85 | 1015.3 |
| 20260505122226 | 54 | 203 | 4.0 | 9.0 | 0.00 | 0.00 | 0.00 | 85 | 1015.2 |
| 20260505121228 | 54 | 180 | 6.0 | 10.0 | 0.00 | 0.00 | 0.00 | 85 | 1015.0 |
| 20260505120220 | 54 | 158 | 4.0 | 9.0 | 0.00 | 0.00 | 0.00 | 85 | 1015.0 |
| 20260505115218 | 54 | 203 | 4.0 | 6.0 | 0.00 | 0.00 | 0.00 | 86 | 1014.9 |
| 20260505114220 | 54 | 158 | 2.0 | 4.0 | 0.00 | 0.00 | 0.00 | 86 | 1014.8 |
| 20260505113220 | 53 | 180 | 3.0 | 5.0 | 0.00 | 0.00 | 0.00 | 86 | 1014.8 |
| 20260505112220 | 54 | 203 | 4.0 | 8.0 | 0.00 | 0.00 | 0.00 | 86 | 1014.8 |
| 20260505111220 | 54 | 203 | 5.0 | 8.0 | 0.00 | 0.00 | 0.00 | 86 | 1014.8 |
| 20260505110220 | 53 | 203 | 4.0 | 7.0 | 0.00 | 0.00 | 0.00 | 86 | 1014.8 |
| 20260505102220 | 53 | 135 | 3.0 | 8.0 | 0.00 | 0.00 | 0.00 | 86 | 1014.4 |
| 20260505101218 | 53 | 158 | 3.0 | 5.0 | 0.00 | 0.00 | 0.00 | 86 | 1014.5 |
| 20260505100240 | 53 | 203 | 4.0 | 14.0 | 0.00 | 0.00 | 0.00 | 86 | 1014.5 |
| 20260505095220 | 53 | 180 | 6.0 | 13.0 | 0.00 | 0.00 | 0.00 | 86 | 1014.5 |
| 20260505094220 | 53 | 158 | 5.0 | 9.0 | 0.00 | 0.00 | 0.00 | 86 | 1014.3 |
| 20260505093226 | 53 | 203 | 7.0 | 10.0 | 0.00 | 0.00 | 0.00 | 86 | 1014.2 |
| 20260505092226 | 54 | 180 | 2.0 | 3.0 | 0.00 | 0.00 | 0.00 | 86 | 1014.1 |
| 20260505091226 | 54 | 158 | 6.0 | 12.0 | 0.00 | 0.00 | 0.00 | 86 | 1014.0 |
| 20260505090248 | 54 | 180 | 4.0 | 8.0 | 0.00 | 0.00 | 0.00 | 86 | 1013.9 |
| 20260505085226 | 54 | 203 | 3.0 | 6.0 | 0.00 | 0.00 | 0.00 | 86 | 1013.9 |
| 20260505084219 | 54 | 180 | 4.0 | 8.0 | 0.00 | 0.00 | 0.00 | 86 | 1013.8 |
| 20260505083240 | 54 | 158 | 5.0 | 8.0 | 0.00 | 0.00 | 0.00 | 85 | 1013.8 |
| 20260505082220 | 54 | 180 | 3.0 | 4.0 | 0.00 | 0.00 | 0.00 | 85 | 1013.7 |
| 20260505081220 | 54 | 203 | 7.0 | 10.0 | 0.00 | 0.00 | 0.00 | 85 | 1013.8 |
| 20260505080220 | 55 | 180 | 3.0 | 6.0 | 0.00 | 0.00 | 0.00 | 84 | 1013.7 |
| 20260505075220 | 55 | 158 | 3.0 | 4.0 | 0.00 | 0.00 | 0.00 | 84 | 1013.8 |
| 20260505074219 | 55 | 135 | 4.0 | 9.0 | 0.00 | 0.00 | 0.00 | 83 | 1013.7 |
| 20260505073220 | 55 | 158 | 3.0 | 4.0 | 0.00 | 0.00 | 0.00 | 83 | 1013.6 |
| 20260505072219 | 56 | 180 | 5.0 | 9.0 | 0.00 | 0.00 | 0.00 | 83 | 1013.4 |
| 20260505071219 | 56 | 180 | 4.0 | 6.0 | 0.00 | 0.00 | 0.00 | 82 | 1013.3 |
| 20260505070220 | 56 | 203 | 5.0 | 7.0 | 0.00 | 0.00 | 0.00 | 82 | 1013.3 |
| 20260505065239 | 56 | 203 | 5.0 | 10.0 | 0.00 | 0.00 | 0.00 | 81 | 1013.2 |
| 20260505064220 | 57 | 180 | 6.0 | 10.0 | 0.00 | 0.00 | 0.00 | 81 | 1013.3 |
| 20260505063219 | 57 | 180 | 4.0 | 9.0 | 0.00 | 0.00 | 0.00 | 80 | 1013.0 |
| 20260505062219 | 58 | 158 | 5.0 | 9.0 | 0.00 | 0.00 | 0.00 | 79 | 1012.9 |
| 20260505061219 | 58 | 180 | 3.0 | 5.0 | 0.00 | 0.00 | 0.00 | 78 | 1012.7 |
| 20260505060219 | 59 | 180 | 6.0 | 9.0 | 0.00 | 0.00 | 0.00 | 78 | 1012.4 |
| 20260505055220 | 59 | 180 | 3.0 | 6.0 | 0.00 | 0.00 | 0.00 | 77 | 1012.5 |
| 20260505054219 | 59 | 158 | 4.0 | 7.0 | 0.00 | 0.00 | 0.00 | 77 | 1012.4 |
| 20260505053239 | 60 | 158 | 3.0 | 5.0 | 0.00 | 0.00 | 0.00 | 76 | 1012.2 |
| 20260505052239 | 60 | 180 | 4.0 | 5.0 | 0.00 | 0.00 | 0.00 | 76 | 1012.3 |
| 20260505051240 | 61 | 180 | 3.0 | 5.0 | 0.00 | 0.00 | 0.00 | 75 | 1012.1 |
| 20260505050219 | 61 | 180 | 3.0 | 4.0 | 0.00 | 0.00 | 0.00 | 74 | 1012.1 |
| 20260505041219 | 64 | 180 | 6.0 | 7.0 | 0.00 | 0.00 | 0.00 | 70 | 1011.5 |
| 20260505040239 | 65 | 203 | 4.0 | 7.0 | 0.00 | 0.00 | 0.00 | 69 | 1011.4 |
| 20260505035240 | 66 | 203 | 4.0 | 5.0 | 0.00 | 0.00 | 0.00 | 67 | 1011.2 |
| 20260505034219 | 67 | 180 | 3.0 | 4.0 | 0.00 | 0.00 | 0.00 | 66 | 1011.1 |
| 20260505033219 | 68 | 180 | 3.0 | 4.0 | 0.00 | 0.00 | 0.00 | 64 | 1010.8 |
| 20260505032219 | 69 | 203 | 4.0 | 6.0 | 0.00 | 0.00 | 0.00 | 62 | 1010.9 |
| 20260505031219 | 70 | 225 | 2.0 | 4.0 | 0.00 | 0.00 | 0.00 | 59 | 1010.7 |
| 20260505030239 | 71 | 315 | 2.0 | 4.0 | 0.00 | 0.00 | 0.00 | 54 | 1010.7 |
| 20260505025220 | 72 | 270 | 2.0 | 4.0 | 0.00 | 0.00 | 0.00 | 53 | 1010.5 |
| 20260505024220 | 73 | 293 | 3.0 | 5.0 | 0.00 | 0.00 | 0.00 | 53 | 1010.4 |
| 20260505023220 | 73 | 293 | 3.0 | 5.0 | 0.00 | 0.00 | 0.00 | 52 | 1010.3 |
| 20260505022219 | 74 | 270 | 4.0 | 7.0 | 0.00 | 0.00 | 0.00 | 52 | 1010.3 |
| 20260505021219 | 74 | 293 | 3.0 | 4.0 | 0.00 | 0.00 | 0.00 | 51 | 1010.4 |
| 20260505020219 | 75 | 270 | 5.0 | 7.0 | 0.00 | 0.00 | 0.00 | 51 | 1010.4 |
| 20260505015219 | 77 | 293 | 3.0 | 4.0 | 0.00 | 0.00 | 0.00 | 50 | 1010.4 |
| 20260505014218 | 78 | 203 | 1.0 | 3.0 | 0.00 | 0.00 | 0.00 | 49 | 1010.3 |
| 20260505013219 | 78 | 180 | 4.0 | 6.0 | 0.00 | 0.00 | 0.00 | 47 | 1010.2 |
| 20260505012218 | 79 | 203 | 3.0 | 4.0 | 0.00 | 0.00 | 0.00 | 46 | 1010.4 |
| 20260505011219 | 79 | 180 | 3.0 | 6.0 | 0.00 | 0.00 | 0.00 | 45 | 1010.4 |
| 20260505010259 | 79 | 180 | 4.0 | 6.0 | 0.00 | 0.00 | 0.00 | 43 | 1010.4 |
| 20260505005219 | 80 | 203 | 4.0 | 5.0 | 0.00 | 0.00 | 0.00 | 42 | 1010.5 |
| 20260505004219 | 80 | 248 | 3.0 | 6.0 | 0.00 | 0.00 | 0.00 | 41 | 1010.5 |
| 20260505003218 | 80 | 248 | 3.0 | 4.0 | 0.00 | 0.00 | 0.00 | 41 | 1010.5 |
| 20260505002219 | 80 | 203 | 2.0 | 4.0 | 0.00 | 0.00 | 0.00 | 40 | 1010.5 |
| 20260505001239 | 81 | 270 | 4.0 | 9.0 | 0.00 | 0.00 | 0.00 | 40 | 1010.6 |
| 20260505000219 | 81 | 158 | 4.0 | 7.0 | 0.00 | 0.00 | 0.00 | 41 | 1010.6 |
| 20260504235219 | 81 | 180 | 6.0 | 8.0 | 0.00 | 0.00 | 0.00 | 40 | 1010.6 |
| 20260504234219 | 81 | 203 | 2.0 | 4.0 | 0.00 | 0.00 | 0.00 | 41 | 1010.7 |
| 20260504233219 | 80 | 180 | 4.0 | 6.0 | 0.00 | 0.00 | 0.00 | 41 | 1010.7 |
| 20260504232219 | 79 | 225 | 5.0 | 7.0 | 0.00 | 0.00 | 0.00 | 41 | 1010.6 |
| 20260504231218 | 80 | 135 | 4.0 | 5.0 | 0.00 | 0.00 | 0.00 | 40 | 1010.7 |
| 20260504230219 | 81 | 180 | 5.0 | 7.0 | 0.00 | 0.00 | 0.00 | 39 | 1010.8 |
| 20260504225220 | 80 | 203 | 5.0 | 8.0 | 0.00 | 0.00 | 0.00 | 40 | 1010.9 |
| 20260504224219 | 79 | 180 | 6.0 | 9.0 | 0.00 | 0.00 | 0.00 | 41 | 1011.1 |
| 20260504223219 | 80 | 225 | 3.0 | 5.0 | 0.00 | 0.00 | 0.00 | 41 | 1011.2 |
| 20260504222219 | 80 | 203 | 3.0 | 5.0 | 0.00 | 0.00 | 0.00 | 40 | 1011.4 |
| 20260504221221 | 80 | 158 | 7.0 | 11.0 | 0.00 | 0.00 | 0.00 | 38 | 1011.4 |
| 20260504220219 | 81 | 135 | 4.0 | 7.0 | 0.00 | 0.00 | 0.00 | 40 | 1011.5 |
| 20260504215239 | 80 | 180 | 2.0 | 6.0 | 0.00 | 0.00 | 0.00 | 45 | 1011.6 |
| 20260504214219 | 79 | 315 | 4.0 | 8.0 | 0.00 | 0.00 | 0.00 | 46 | 1011.7 |
| 20260504213218 | 78 | 180 | 5.0 | 9.0 | 0.00 | 0.00 | 0.00 | 47 | 1011.6 |
| 20260504212219 | 78 | 180 | 4.0 | 6.0 | 0.00 | 0.00 | 0.00 | 48 | 1011.7 |
| 20260504211219 | 78 | 180 | 2.0 | 4.0 | 0.00 | 0.00 | 0.00 | 49 | 1011.8 |
| 20260504210219 | 79 | 225 | 2.0 | 4.0 | 0.00 | 0.00 | 0.00 | 48 | 1011.9 |
| 20260504205238 | 77 | 225 | 3.0 | 7.0 | 0.00 | 0.00 | 0.00 | 49 | 1011.8 |
| 20260504204218 | 77 | 180 | 5.0 | 8.0 | 0.00 | 0.00 | 0.00 | 47 | 1011.9 |
| 20260504203220 | 78 | 180 | 4.0 | 7.0 | 0.00 | 0.00 | 0.00 | 45 | 1012.0 |
| 20260504202220 | 78 | 180 | 2.0 | 4.0 | 0.00 | 0.00 | 0.00 | 42 | 1012.0 |
| 20260504201221 | 77 | 180 | 5.0 | 9.0 | 0.00 | 0.00 | 0.00 | 42 | 1012.0 |
| 20260504200218 | 77 | 158 | 3.0 | 5.0 | 0.00 | 0.00 | 0.00 | 45 | 1012.1 |
| 20260504195220 | 77 | 180 | 5.0 | 7.0 | 0.00 | 0.00 | 0.00 | 45 | 1012.0 |
| 20260504194218 | 77 | 180 | 3.0 | 7.0 | 0.00 | 0.00 | 0.00 | 43 | 1012.0 |
| 20260504193219 | 76 | 225 | 3.0 | 7.0 | 0.00 | 0.00 | 0.00 | 42 | 1012.0 |
| 20260504192239 | 76 | 270 | 3.0 | 6.0 | 0.00 | 0.00 | 0.00 | 39 | 1012.1 |
| 20260504191240 | 77 | 203 | 5.0 | 8.0 | 0.00 | 0.00 | 0.00 | 39 | 1012.2 |
| 20260504190220 | 76 | 180 | 3.0 | 7.0 | 0.00 | 0.00 | 0.00 | 42 | 1012.3 |
| 20260504185218 | 75 | 203 | 3.0 | 4.0 | 0.00 | 0.00 | 0.00 | 44 | 1012.2 |
| 20260504184220 | 76 | 225 | 1.0 | 3.0 | 0.00 | 0.00 | 0.00 | 44 | 1012.4 |
| 20260504183239 | 75 | 203 | 1.0 | 2.0 | 0.00 | 0.00 | 0.00 | 46 | 1012.3 |
| 20260504182219 | 76 | 315 | 1.0 | 4.0 | 0.00 | 0.00 | 0.00 | 45 | 1012.3 |
| 20260504181218 | 75 | 203 | 5.0 | 6.0 | 0.00 | 0.00 | 0.00 | 45 | 1012.3 |
| 20260504180259 | 76 | 338 | 3.0 | 5.0 | 0.00 | 0.00 | 0.00 | 45 | 1012.2 |
| 20260504175221 | 74 | 248 | 6.0 | 8.0 | 0.00 | 0.00 | 0.00 | 47 | 1012.4 |
| 20260504174239 | 73 | 270 | 2.0 | 3.0 | 0.00 | 0.00 | 0.00 | 48 | 1012.4 |
| 20260504173218 | 74 | 0.0 | 1.0 | 0.00 | 0.00 | 0.00 | 48 | 1012.5 | |
| 20260504172220 | 73 | 225 | 1.0 | 3.0 | 0.00 | 0.00 | 0.00 | 48 | 1012.6 |
| 20260504171220 | 72 | 203 | 2.0 | 3.0 | 0.00 | 0.00 | 0.00 | 48 | 1012.5 |
| 20260504170220 | 72 | 180 | 1.0 | 3.0 | 0.00 | 0.00 | 0.00 | 50 | 1012.4 |
| 20260504160220 | 66 | 158 | 4.0 | 5.0 | 0.00 | 0.00 | 0.00 | 59 | 1012.2 |
| 20260504150220 | 60 | 180 | 1.0 | 2.0 | 0.00 | 0.00 | 0.00 | 74 | 1011.6 |
| 20260504141220 | 56 | 23 | 1.0 | 2.0 | 0.00 | 0.00 | 0.00 | 77 | 1011.3 |
| 20260504140219 | 55 | 0.0 | 0.0 | 0.00 | 0.00 | 0.00 | 77 | 1011.3 | |
| 20260504130219 | 53 | 0.0 | 0.0 | 0.00 | 0.00 | 0.00 | 78 | 1010.8 |